Whiting Fld NAS, FL

10:44 AM CDT on March 30, 2017 (GMT -0500)
Whiting Field Naval Air Station (North)

Weather History for KNSE - August, 2013

Change the Weather History Date:

Sunday, August 25, 2013

  Actual Average Record
Temperature  
Mean Temperature 80 °F -  
Max Temperature 87 °F 87 °F 100 °F (2011)
Min Temperature 73 °F 70 °F 64 °F (2015)
Cooling Degree Days 14    
Growing Degree Days 30 (Base 50)    
Moisture  
Dew Point 71 °F    
Average Humidity 80    
Maximum Humidity 91    
Minimum Humidity 61    
Precipitation  
Precipitation 0.00 in - - ()
Sea Level Pressure  
Sea Level Pressure 30.15 in    
Wind  
Wind Speed 6 mph (ENE)    
Max Wind Speed 12 mph    
Max Gust Speed 18 mph    
Visibility 10 miles    
Events Rain    
Averages and records for this station are not official NWS values.
T = Trace of Precipitation, MM = Missing Value Source: NWS Daily Summary

Daily Weather History Graph

Daily Weather History Graph

Search for Another Location

Airport or City:

Trip Planner

Search our weather history database for the weather conditions in past years. The results will help you decide how hot, cold, wet, or windy it might be!

Date:

Astronomy

Aug. 25, 2013 Rise Set
Actual Time 6:20 AM CDT 7:19 PM CDT
Civil Twilight 5:55 AM CDT 7:43 PM CDT
Nautical Twilight 5:26 AM CDT 8:13 PM CDT
Astronomical Twilight 4:56 AM CDT 8:43 PM CDT
Moon 10:15 PM CDT (8/25) 10:57 AM CDT (8/25)
Length of Visible Light 13h 48m
Length of Day
12h 58m
Waning Gibbous, 75% of the Moon is Illuminated
Aug 25
Waning Gibbous
Aug 28
Last Quarter
Sep 5
New
Sep 12
First Quarter
Sep 19
Full

Hourly Weather History & Observations

Time (CDT) Temp. Heat Index Dew Point Humidity Pressure Visibility Wind Dir Wind Speed Gust Speed Precip Events Conditions
12:56 AM 73.9 °F - 71.1 °F 91% 30.10 in 10.0 mi North 3.5 mph - N/A   Partly Cloudy
1:56 AM 73.9 °F - 70.0 °F 87% 30.09 in 10.0 mi Calm Calm - N/A   Clear
2:56 AM 73.0 °F - 70.0 °F 90% 30.09 in 9.0 mi NE 5.8 mph - 0.00 in   Partly Cloudy
3:10 AM 73.4 °F - 69.8 °F 88% 30.14 in 10.0 mi NE 10.4 mph - N/A   Mostly Cloudy
3:25 AM 73.4 °F - 69.8 °F 88% 30.14 in 10.0 mi ENE 8.1 mph - N/A   Scattered Clouds
3:56 AM 73.0 °F - 69.1 °F 87% 30.09 in 10.0 mi East 5.8 mph - N/A   Clear
4:56 AM 73.0 °F - 70.0 °F 90% 30.12 in 10.0 mi East 5.8 mph - 0.00 in Rain Light Rain
5:32 AM 73.4 °F - 69.8 °F 88% 30.16 in 7.0 mi ENE 4.6 mph - 0.00 in Rain Light Rain
5:52 AM 73.4 °F - 69.8 °F 88% 30.16 in 10.0 mi East 5.8 mph - 0.00 in Rain Light Rain
5:56 AM 73.0 °F - 70.0 °F 90% 30.12 in 10.0 mi East 6.9 mph - 0.00 in Rain Light Rain
6:22 AM 73.4 °F - 69.8 °F 88% 30.16 in 10.0 mi East 8.1 mph - 0.00 in   Overcast
6:56 AM 73.0 °F - 70.0 °F 90% 30.13 in 9.0 mi ENE 6.9 mph - 0.00 in   Scattered Clouds
7:10 AM 73.4 °F - 69.8 °F 88% 30.18 in 7.0 mi East 6.9 mph - N/A   Scattered Clouds
7:21 AM 73.4 °F - 69.8 °F 88% 30.19 in 7.0 mi East 6.9 mph - N/A   Mostly Cloudy
7:56 AM 75.0 °F - 71.1 °F 87% 30.15 in 8.0 mi East 9.2 mph - N/A   Overcast
8:56 AM 75.9 °F - 71.1 °F 85% 30.16 in 9.0 mi East 9.2 mph - N/A   Overcast
9:06 AM 75.2 °F - 71.6 °F 89% 30.21 in 9.0 mi East 9.2 mph - N/A   Overcast
9:56 AM 78.1 °F - 71.1 °F 79% 30.17 in 10.0 mi ENE 10.4 mph - N/A   Mostly Cloudy
10:31 AM 78.8 °F - 71.6 °F 78% 30.21 in 10.0 mi East 11.5 mph - N/A   Scattered Clouds
10:56 AM 79.0 °F - 71.1 °F 77% 30.17 in 9.0 mi East 6.9 mph - N/A   Mostly Cloudy
11:56 AM 82.0 °F 86.7 °F 72.0 °F 71% 30.15 in 10.0 mi ENE 8.1 mph - N/A   Scattered Clouds
12:13 PM 82.4 °F 87.2 °F 71.6 °F 70% 30.19 in 10.0 mi NE 6.9 mph - N/A   Mostly Cloudy
12:43 PM 84.2 °F 89.6 °F 71.6 °F 66% 30.19 in 10.0 mi ENE 8.1 mph - N/A   Scattered Clouds
12:56 PM 84.0 °F 89.0 °F 71.1 °F 65% 30.15 in 10.0 mi Variable 4.6 mph - N/A   Partly Cloudy
1:56 PM 84.0 °F 89.0 °F 71.1 °F 65% 30.14 in 10.0 mi East 8.1 mph - N/A   Mostly Cloudy
2:56 PM 84.9 °F 90.1 °F 71.1 °F 63% 30.12 in 10.0 mi ENE 9.2 mph 18.4 mph N/A   Partly Cloudy
3:56 PM 86.0 °F 91.5 °F 71.1 °F 61% 30.11 in 10.0 mi ESE 11.5 mph - N/A   Scattered Clouds
4:56 PM 86.0 °F 91.5 °F 71.1 °F 61% 30.11 in 10.0 mi East 8.1 mph - N/A   Mostly Cloudy
5:56 PM 82.9 °F 87.5 °F 71.1 °F 67% 30.12 in 10.0 mi East 3.5 mph - N/A   Mostly Cloudy
6:56 PM 79.0 °F - 71.1 °F 77% 30.13 in 10.0 mi SE 3.5 mph - N/A   Mostly Cloudy
7:56 PM 77.0 °F - 71.1 °F 82% 30.14 in 10.0 mi Calm Calm - N/A   Mostly Cloudy
8:56 PM 78.1 °F - 71.1 °F 79% 30.15 in 10.0 mi NE 4.6 mph - N/A   Overcast
9:56 PM 77.0 °F - 70.0 °F 79% 30.17 in 10.0 mi Calm Calm - N/A   Overcast
10:56 PM 77.0 °F - 69.1 °F 76% 30.17 in 10.0 mi NE 4.6 mph - N/A   Overcast
11:56 PM 75.9 °F - 68.0 °F 76% 30.16 in 10.0 mi ENE 3.5 mph - N/A   Overcast